Regional Weather Roundup
Issued by NWS

Home | Current Version | Previous Version | Text Only | Print | Product List | Glossary On
Versions: 1 2 3 4 5 6 7 8 9 10 11 12 13 14 15 16 17 18 19 20 21 22 23 24 25 26 27 28 29 30 31 32 33 34 35 36 37 38 39 40 41 42 43 44 45 46 47 48 49 50
000
ASUS43 KLSX 060107
RWRMO

WEATHER SUMMARY FOR MISSOURI
NATIONAL WEATHER SERVICE SPRINGFIELD MO
800 PM CDT TUE MAY 05 2015

NOTE: "FAIR" INDICATES FEW OR NO CLOUDS BELOW 12,000 FEET WITH NO
       SIGNIFICANT WEATHER AND/OR OBSTRUCTIONS TO VISIBILITY.
       CURRENT SKY AND/OR WEATHER CONDITIONS ARE NOT AVAILABLE FOR
       CHILLICOTHE AND FARMINGTON.

MOZ001>031-035>038-043-044-053-054-060200-
...NORTHERN AND WESTERN MISSOURI...

CITY           SKY/WX    TMP DP  RH WIND       PRES   REMARKS
KANSAS CTY INT CLOUDY    70  58  65 SW9       30.02R
KANSAS C DTWN  CLOUDY    76  60  57 SE9       30.00S
LEE`S SUMMIT   CLOUDY    72  60  66 SE5       30.03R
ST JOSEPH      MOCLDY    74  58  57 SE13      29.99R
CHILLICOTHE      N/A     75  58  55 SE9       30.05R
KIRKSVILLE     MOCLDY    71  59  65 S8        30.08R

$$
MOZ066>068-077>081-088>096-101>105-060200-
...SOUTHWEST MISSOURI...

CITY           SKY/WX    TMP DP  RH WIND       PRES   REMARKS
SPRINGFIELD    MOCLDY    75  54  47 SE13G22   30.05R
JOPLIN         MOCLDY    73  57  57 SE7       30.00S

$$
MOZ032>034-039>042-045>050-055>058-069>072-060200-
...CENTRAL MISSOURI...

CITY           SKY/WX    TMP DP  RH WIND       PRES   REMARKS
COLUMBIA       PTCLDY    70  64  81 E7        30.08R
JEFFERSON CITY MOCLDY    74  62  66 E7        30.06R
ROLLA          PTCLDY    72  56  57 S7        30.09R
SEDALIA        CLOUDY    70  61  73 NE3       30.06S
WHITEMAN AFB   CLOUDY    68  63  83 E6        30.03S
WARRENSBURG    CLOUDY    68  63  83 E6        30.03S
OSAGE BEACH    PTCLDY    75  54  46 S6        30.07R

$$
MOZ051-052-059>065-060200-
...EAST CENTRAL MISSOURI...

CITY           SKY/WX    TMP DP  RH WIND       PRES   REMARKS
ST LOUIS INTL  MOCLDY    80  55  42 S5        30.11R
SPIRIT OF STL  PTCLDY    73  59  61 CALM      30.09R
ST CHARLES     PTCLDY    76  55  48 S8        30.09R

$$
MOZ072>076-082>087-097>100-106>115-060200-
...SOUTH CENTRAL AND SOUTHEAST MISSOURI...

CITY           SKY/WX    TMP DP  RH WIND       PRES   REMARKS
CAPE GIRARDEAU MOCLDY    72  62  71 CALM      30.12R
FARMINGTON     PTCLDY    72  59  64 SE5       30.16S
POPLAR BLUFF   PTCLDY    76  54  46 S7        30.10R
WEST PLAINS    CLEAR     73  52  47 SE5       30.12R

$$



USA.gov is the U.S. government's official web portal to all federal, state and local government web resources and services.